Retour au catalogue

CZ-3A DEB

ActifGTO
NORAD 35551·DEBRIS·🇨🇳 China

Lancé Feb 2, 2007 depuis Xichang Satellite Launch Center

Loading…

TLE

PériméSource: Space-Track

Époque: Sep 13, 2026, 23:15 UTC

1 35551U 07003K   26256.96886997 -.00000146  00000-0 -23845-3 0  9990
2 35551  24.6499 204.7298 7202978 183.2162 166.4800  2.16455503 22982

Suivez CZ-3A DEB en temps réel avec AllMySat

Download on the App Store